Hourly Data Report for October 12, 2017

TORONTO CITY
ONTARIO

43°40'00.000" N
79°24'00.000" W
112.50 m
6158355
71508
XTO

Download Data

Hourly Data (October 2017)
Hourly Data Report for October 12, 2017
TIME
LST
Temp Definition
°C
Dew Point Definition
°C
Rel Hum Definition
%
Precip. Amount Definition
mm

Wind Dir Definition
10's deg

Wind Spd Definition
km/h
Visibility Definition
km
Stn Press Definition
kPa
Hmdx Definition


Wind Chill Definition


Weather Definition


00:00 9.0 3.5 68 0.0 LegendMM LegendMM   101.11     LegendNANA
01:00 9.1 3.1 66 0.0 LegendMM LegendMM   101.08     LegendNANA
02:00 9.3 3.4 67 0.0 LegendMM LegendMM   101.11     LegendNANA
03:00 9.2 2.8 64 0.0 LegendMM LegendMM   101.10     LegendNANA
04:00 9.1 3.1 66 0.0 LegendMM LegendMM   101.10     LegendNANA
05:00 9.5 3.9 68 0.0 LegendMM LegendMM   101.11     LegendNANA
06:00 9.8 4.1 68 0.0 LegendMM LegendMM   101.13     LegendNANA
07:00 10.8 6.1 72 0.0 LegendMM LegendMM   101.17     LegendNANA
08:00 11.0 6.7 75 0.0 LegendMM LegendMM   101.24     LegendNANA
09:00 11.0 6.4 73 0.0 LegendMM LegendMM   101.25     LegendNANA
10:00 11.2 7.1 76 0.0 LegendMM LegendMM   101.25     LegendNANA
11:00 12.2 8.7 79 0.0 LegendMM LegendMM   101.23     LegendNANA
12:00 12.8 9.5 81 0.0 LegendMM LegendMM   101.21     LegendNANA
13:00 13.4 10.3 82 0.0 LegendMM LegendMM   101.16     LegendNANA
14:00 13.9 10.6 81 0.0 LegendMM LegendMM   101.12     LegendNANA
15:00 14.7 11.1 79 0.0 LegendMM LegendMM   101.09     LegendNANA
16:00 14.8 11.5 81 0.0 LegendMM LegendMM   101.11     LegendNANA
17:00 14.8 11.6 81 0.0 LegendMM LegendMM   101.08     LegendNANA
18:00 15.0 11.8 81 0.0 LegendMM LegendMM   101.09     LegendNANA
19:00 15.3 11.8 79 0.0 LegendMM LegendMM   101.10     LegendNANA
20:00 15.3 12.0 80 0.0 LegendMM LegendMM   101.08     LegendNANA
21:00 15.4 11.7 79 0.0 LegendMM LegendMM   101.05     LegendNANA
22:00 15.3 11.7 79 0.0 LegendMM LegendMM   101.03     LegendNANA
23:00 14.4 12.1 86 0.0 LegendMM LegendMM   101.02     LegendNANA

Notes on Data Quality.

Legend

  • E = Estimated
  • M = Missing
  • NA = Not Available*
  • [empty] = Indicates an unobserved value
Date modified: